Great Bend, KS

2:28 PM CST on December 06, 2016 (GMT -0600)
Great Bend Municipal

Weather History for KGBD - January, 2012

Change the Weather History Date:

Sunday, January 15, 2012

  Actual Average Record
Temperature  
Mean Temperature 45 °F -  
Max Temperature 62 °F 44 °F 53 °F (2015)
Min Temperature 28 °F 20 °F 17 °F (2015)
Degree Days  
Heating Degree Days 20    
Moisture  
Dew Point 21 °F    
Average Humidity 45    
Maximum Humidity 69    
Minimum Humidity 19    
Precipitation  
Precipitation 0.00 in - - ()
Sea Level Pressure  
Sea Level Pressure 29.86 in    
Wind  
Wind Speed 14 mph (South)    
Max Wind Speed 25 mph    
Max Gust Speed 29 mph    
Visibility 10 miles    
Events      
Averages and records for this station are not official NWS values.
T = Trace of Precipitation, MM = Missing Value Source: NWS Daily Summary

Daily Weather History Graph

Daily Weather History Graph

Search for Another Location

Airport or City:

Trip Planner

Search our weather history database for the weather conditions in past years. The results will help you decide how hot, cold, wet, or windy it might be!

Date:

Astronomy

Jan. 15, 2012 Rise Set
Actual Time 7:51 AM CST 5:38 PM CST
Civil Twilight 7:22 AM CST 6:07 PM CST
Nautical Twilight 6:49 AM CST 6:40 PM CST
Astronomical Twilight 6:17 AM CST 7:11 PM CST
Moon No Moon Rise 11:16 AM CST (1/15)
Length of Visible Light 10h 45m
Length of Day
9h 47m
Waning Gibbous, 57% of the Moon is Illuminated
Jan 15
Waning Gibbous
Jan 16
Last Quarter
Jan 23
New
Jan 30
First Quarter
Feb 7
Full

Hourly Weather History & Observations

Time (CST) Temp. Windchill Dew Point Humidity Pressure Visibility Wind Dir Wind Speed Gust Speed Precip Events Conditions
12:15 AM 30.2 °F 20.2 °F 15.8 °F 55% 30.08 in 10.0 mi South 12.7 mph - N/A   Clear
12:35 AM 30.2 °F 20.2 °F 15.8 °F 55% 30.06 in 10.0 mi South 12.7 mph - N/A   Clear
12:55 AM 30.2 °F 19.8 °F 15.8 °F 55% 30.05 in 10.0 mi South 13.8 mph - N/A   Clear
1:15 AM 33.8 °F 23.9 °F 17.6 °F 52% 30.04 in 10.0 mi South 15.0 mph - N/A   Clear
1:35 AM 33.8 °F 24.8 °F 15.8 °F 48% 30.03 in 10.0 mi South 12.7 mph - N/A   Clear
1:55 AM 33.8 °F 25.3 °F 15.8 °F 48% 30.03 in 10.0 mi South 11.5 mph - N/A   Clear
2:15 AM 30.2 °F 20.8 °F 15.8 °F 55% 30.02 in 10.0 mi South 11.5 mph - N/A   Clear
2:35 AM 30.2 °F 20.8 °F 15.8 °F 55% 30.02 in 10.0 mi South 11.5 mph - N/A   Clear
2:55 AM 32.0 °F 23.6 °F 17.6 °F 55% 30.01 in 10.0 mi South 10.4 mph - N/A   Clear
3:15 AM 33.8 °F 23.9 °F 17.6 °F 52% 29.99 in 10.0 mi South 15.0 mph - N/A   Clear
3:35 AM 35.6 °F 25.2 °F 17.6 °F 48% 29.98 in 10.0 mi South 18.4 mph - N/A   Clear
4:15 AM 33.8 °F 24.8 °F 17.6 °F 52% 29.96 in 10.0 mi South 12.7 mph - N/A   Clear
4:35 AM 33.8 °F 24.8 °F 17.6 °F 52% 29.96 in 10.0 mi South 12.7 mph - N/A   Clear
4:55 AM 33.8 °F 24.8 °F 17.6 °F 52% 29.95 in 10.0 mi South 12.7 mph - N/A   Clear
5:15 AM 32.0 °F 23.0 °F 17.6 °F 55% 29.94 in 10.0 mi South 11.5 mph - N/A   Clear
5:35 AM 30.2 °F 21.3 °F 17.6 °F 60% 29.93 in 10.0 mi South 10.4 mph - N/A   Clear
5:55 AM 30.2 °F 22.6 °F 19.4 °F 64% 29.92 in 10.0 mi South 8.1 mph - N/A   Clear
6:15 AM 30.2 °F 21.3 °F 19.4 °F 64% 29.92 in 10.0 mi South 10.4 mph - N/A   Clear
6:35 AM 30.2 °F 22.6 °F 19.4 °F 64% 29.92 in 10.0 mi South 8.1 mph - N/A   Clear
6:55 AM 28.4 °F 19.1 °F 17.6 °F 64% 29.92 in 10.0 mi South 10.4 mph - N/A   Clear
7:15 AM 30.2 °F 19.8 °F 19.4 °F 64% 29.92 in 10.0 mi South 13.8 mph - N/A   Clear
7:55 AM 28.4 °F 16.6 °F 19.4 °F 69% 29.91 in 10.0 mi South 16.1 mph - N/A   Clear
8:15 AM 28.4 °F 19.1 °F 19.4 °F 69% 29.92 in 10.0 mi South 10.4 mph - N/A   Clear
8:35 AM 28.4 °F 19.7 °F 19.4 °F 69% 29.91 in 10.0 mi South 9.2 mph - N/A   Clear
8:55 AM 32.0 °F 23.0 °F 21.2 °F 64% 29.90 in 10.0 mi SSW 11.5 mph - N/A   Clear
9:15 AM 33.8 °F 25.3 °F 21.2 °F 60% 29.91 in 10.0 mi SSW 11.5 mph - N/A   Clear
9:35 AM 37.4 °F 28.5 °F 23.0 °F 56% 29.90 in 10.0 mi SSW 15.0 mph - N/A   Clear
9:55 AM 39.2 °F 31.6 °F 23.0 °F 52% 29.90 in 10.0 mi SSW 12.7 mph - N/A   Clear
10:15 AM 39.2 °F 31.6 °F 23.0 °F 52% 29.91 in 10.0 mi SW 12.7 mph - N/A   Clear
10:35 AM 41.0 °F 33.9 °F 23.0 °F 49% 29.90 in 10.0 mi SSW 12.7 mph - N/A   Clear
10:55 AM 44.6 °F 38.1 °F 24.8 °F 46% 29.89 in 10.0 mi SSW 13.8 mph - N/A   Clear
11:15 AM 46.4 °F 40.4 °F 24.8 °F 43% 29.88 in 10.0 mi SSW 13.8 mph - N/A   Clear
11:35 AM 48.2 °F - 24.8 °F 40% 29.87 in 10.0 mi SSW 11.5 mph - N/A   Clear
12:15 PM 55.4 °F - 24.8 °F 31% 29.85 in 10.0 mi SSW 12.7 mph - N/A   Clear
12:35 PM 55.4 °F - 24.8 °F 31% 29.83 in 10.0 mi South 17.3 mph - N/A   Clear
12:55 PM 57.2 °F - 24.8 °F 29% 29.82 in 10.0 mi South 17.3 mph - N/A   Clear
1:15 PM 59.0 °F - 24.8 °F 27% 29.80 in 10.0 mi South 15.0 mph 19.6 mph N/A   Clear
1:35 PM 60.8 °F - 23.0 °F 23% 29.78 in 10.0 mi South 16.1 mph - N/A   Clear
1:55 PM 60.8 °F - 23.0 °F 23% 29.77 in 10.0 mi South 17.3 mph - N/A   Clear
2:15 PM 62.6 °F - 21.2 °F 20% 29.76 in 10.0 mi South 19.6 mph 24.2 mph N/A   Clear
2:35 PM 62.6 °F - 19.4 °F 19% 29.75 in 10.0 mi South 25.3 mph - N/A   Clear
2:55 PM 62.6 °F - 19.4 °F 19% 29.74 in 10.0 mi South 23.0 mph 27.6 mph N/A   Clear
3:15 PM 60.8 °F - 19.4 °F 20% 29.74 in 10.0 mi South 21.9 mph 28.8 mph N/A   Clear
3:35 PM 60.8 °F - 21.2 °F 22% 29.74 in 10.0 mi South 20.7 mph 26.5 mph N/A   Clear
3:55 PM 59.0 °F - 21.2 °F 23% 29.74 in 10.0 mi South 19.6 mph - N/A   Clear
4:15 PM 59.0 °F - 21.2 °F 23% 29.74 in 10.0 mi South 18.4 mph - N/A   Clear
4:35 PM 57.2 °F - 23.0 °F 27% 29.74 in 10.0 mi South 17.3 mph - N/A   Clear
4:55 PM 55.4 °F - 24.8 °F 31% 29.73 in 10.0 mi SSE 16.1 mph - N/A   Clear
5:15 PM 53.6 °F - 24.8 °F 33% 29.73 in 10.0 mi SSE 13.8 mph - N/A   Clear
5:35 PM 51.8 °F - 24.8 °F 35% 29.72 in 10.0 mi SSE 17.3 mph - N/A   Clear
5:55 PM 51.8 °F - 23.0 °F 33% 29.72 in 10.0 mi SSE 17.3 mph - N/A   Clear
6:15 PM 48.2 °F - 23.0 °F 37% 29.73 in 10.0 mi SSE 11.5 mph - N/A   Clear
6:35 PM 44.6 °F 39.7 °F 23.0 °F 43% 29.73 in 10.0 mi SE 9.2 mph - N/A   Clear
6:55 PM 44.6 °F 38.4 °F 24.8 °F 46% 29.73 in 10.0 mi SSE 12.7 mph - N/A   Clear
7:15 PM 44.6 °F 38.8 °F 24.8 °F 46% 29.73 in 10.0 mi South 11.5 mph - N/A   Clear
7:35 PM 44.6 °F 38.4 °F 24.8 °F 46% 29.73 in 10.0 mi South 12.7 mph - N/A   Clear
7:55 PM 44.6 °F 38.4 °F 24.8 °F 46% 29.72 in 10.0 mi SSE 12.7 mph - N/A   Clear
8:15 PM 44.6 °F 37.4 °F 26.6 °F 49% 29.71 in 10.0 mi SSE 16.1 mph - N/A   Clear
8:55 PM 44.6 °F 37.2 °F 26.6 °F 49% 29.70 in 10.0 mi South 17.3 mph 24.2 mph N/A   Clear
9:15 PM 42.8 °F 34.8 °F 26.6 °F 53% 29.69 in 10.0 mi South 17.3 mph - N/A   Clear
9:35 PM 42.8 °F 36.2 °F 26.6 °F 53% 29.69 in 10.0 mi South 12.7 mph - N/A   Clear
9:55 PM 41.0 °F 34.3 °F 28.4 °F 61% 29.69 in 10.0 mi South 11.5 mph - N/A   Clear
10:15 PM 41.0 °F 33.9 °F 28.4 °F 61% 29.68 in 10.0 mi South 12.7 mph - N/A   Clear
10:35 PM 37.4 °F 30.8 °F 26.6 °F 65% 29.68 in 10.0 mi South 9.2 mph - N/A   Clear
10:55 PM 33.8 °F 27.7 °F 24.8 °F 70% 29.68 in 10.0 mi South 6.9 mph - N/A   Clear
11:15 PM 33.8 °F 28.6 °F 24.8 °F 70% 29.67 in 10.0 mi SSW 5.8 mph - N/A   Clear
11:35 PM 35.6 °F 30.7 °F 26.6 °F 70% 29.67 in 10.0 mi South 5.8 mph - N/A   Clear
11:55 PM 35.6 °F 28.6 °F 26.6 °F 70% 29.66 in 10.0 mi South 9.2 mph - N/A   Clear